Location: Bare
(45.6000°N, 17.9500°E)
Time: 03:22:53
(UTC+00:00)

Daily predictions for brighter satellites

Satellite Brightness Start Highest point End
(mag) Time Altitude Azimuth Time Altitude Azimuth Time Altitude Azimuth
Cosmos 2360 Rocket 4.4 01:03:17 21° ENE 01:03:17 21° ENE 01:05:34 10° NE
Cosmos 2333 Rocket 4.4 01:35:28 17° ESE 01:37:10 19° E 01:41:02 10° ENE
Cosmos 1745 Rocket 4.3 01:55:32 59° NNE 01:55:32 59° NNE 02:00:38 10° NNE
SL-16 R/B 3.6 02:02:36 29° N 02:02:36 29° N 02:05:35 10° NNE
Cosmos 2322 4.3 02:02:06 52° ESE 02:02:06 52° ESE 02:07:29 10° NE
ADEOS II 3.9 02:00:05 10° N 02:02:01 23° N 02:02:01 23° N
USA 267 3.2 02:05:22 10° NE 02:11:52 69° NNW 02:11:54 69° NW
BREEZE-M DEB (TANK) 3.5 02:14:51 57° E 02:14:51 57° E 02:17:23 10° ENE
Cosmos 2219 Rocket 3.4 02:12:09 28° SSE 02:14:09 36° ESE 02:19:15 10° NE
Cosmos 2237 4.4 02:15:24 64° NNE 02:15:24 64° NNE 02:20:14 10° NNE
H-2A R/B 4.5 02:14:47 10° NE 02:18:17 26° E 02:19:55 21° SE
ARIANE 5 R/B 4.4 02:18:20 10° N 02:19:49 19° N 02:19:49 19° N
Cosmos 1386 Rocket 4.4 02:26:14 73° WNW 02:26:14 73° WNW 02:32:28 10° N
COSMOS 2428 3.5 02:25:19 31° SSE 02:27:38 47° ESE 02:33:03 10° NE
COSMOS 2455 2.8 02:27:14 74° S 02:27:47 82° ESE 02:33:51 10° NNE
PSLV R/B 4.3 02:24:07 10° NNE 02:27:43 49° ENE 02:27:43 49° ENE
Cosmos 2322 Rocket 3.4 02:34:29 28° NNW 02:34:29 28° NNW 02:37:57 10° N
CZ-2C R/B 4.1 02:34:20 10° NNE 02:39:03 34° E 02:43:42 10° SSE
IDEFIX/ARIANE 42P 2.6 02:37:01 10° NNE 02:42:18 81° ESE 02:44:01 44° S
Cosmos 1536 Rocket 4.4 02:41:09 23° SSE 02:43:32 48° E 02:47:43 10° NNE
Cosmos 2360 Rocket 2.6 02:45:05 46° NW 02:45:05 46° NW 02:50:03 10° NNE
NOSS 2-2 (D) 3.9 02:45:53 50° ESE 02:45:53 50° ESE 02:49:38 10° NE
Cosmos 1733 3.8 02:41:55 10° N 02:45:44 55° ENE 02:49:30 10° SSE
USA 234 3.2 02:39:34 10° SE 02:46:01 63° SW 02:47:40 48° W
Cosmos 1842 3.9 02:45:47 48° SE 02:46:22 54° E 02:50:14 10° NNE
Intercosmos 25 4.3 02:48:31 10° N 02:53:10 90° WSW 03:00:50 10° S
BREEZE-M DEB (TANK) 4.2 02:54:35 24° ENE 02:54:35 24° ENE 02:55:37 10° ENE
Cosmos 1066 Rocket 4.5 02:57:48 44° WNW 02:57:48 44° WNW 03:02:35 10° N
PAYLOAD A 4.4 02:53:03 10° NNE 02:57:47 58° E 03:02:39 10° S
Cosmos 1992 Rocket 3.8 02:53:13 10° NNW 02:58:26 73° WSW 03:03:35 10° SSE
Cosmos 1844 Rocket 3.8 03:07:00 26° SSW 03:07:00 26° SSW 03:09:42 10° S
Cosmos 2251 Rocket 3.6 03:04:47 49° WSW 03:05:48 57° WNW 03:11:08 10° NNE
ATLAS 3B R/B 3.5 02:59:38 10° NNW 03:06:07 50° NE 03:12:43 10° ESE
Aureole 1 Rocket 3.7 03:00:49 17° SSW 03:06:15 87° WNW 03:11:31 10° NNE
CZ-4B R/B 4.0 03:06:19 10° NNE 03:10:17 44° E 03:14:01 10° S
Cosmos 1709 Rocket 4.1 03:09:42 26° SW 03:13:05 54° WNW 03:19:18 10° N
Cosmos 2184 Rocket 4.4 03:07:17 10° S 03:13:22 64° E 03:19:34 10° NNE
Meteor 1-22 Rocket 4.1 03:09:01 10° NNW 03:14:16 53° W 03:19:22 10° S
MSX 3.7 03:12:38 10° NNE 03:18:23 78° WNW 03:24:06 10° SSW
Cosmos 292 Rocket 3.9 03:13:55 10° NNW 03:18:42 73° ENE 03:23:30 10° SSE
CENTAUR R/B 3.5 03:12:49 10° NW 03:20:44 69° NE 03:29:23 10° SE
Cosmos 2333 Rocket 2.1 03:17:32 26° SW 03:20:49 69° WNW 03:26:32 10° NNE
Cosmos 2278 Rocket 2.4 03:16:02 10° NNW 03:21:45 76° ENE 03:27:24 10° SSE
Meteor 1-21 4.1 03:16:29 10° S 03:22:04 86° W 03:27:44 10° N
NOSS 2-2 (C) 3.1 03:21:24 52° WSW 03:22:09 69° NW 03:26:19 10° NE
ATLAS 2AS CENTAUR R/B 3.2 03:14:21 10° SSW 03:22:18 76° ESE 03:30:21 10° NE
Cosmos 44 3.8 03:18:49 11° NNW 03:23:01 51° NE 03:27:13 10° SE
Cosmos 1844 4.3 03:24:00 30° WNW 03:25:28 34° WSW 03:30:35 10° SSW
USA 238 DEB 3.8 03:19:18 10° NW 03:26:22 60° WSW 03:33:38 10° SSE
USA 238 3.8 03:19:24 10° NW 03:26:29 61° WSW 03:33:44 10° SSE
OE (NEXTSAT) 4.3 03:29:43 50° W 03:30:30 73° SSW 03:34:00 10° ESE
ADEOS 4.1 03:30:55 10° N 03:35:41 37° WNW 03:38:16 23° WSW
NOSS 8 (H) 4.3 03:35:19 46° W 03:35:46 51° NW 03:38:51 10° NNE
Cosmos 1953 2.9 03:31:49 10° N 03:35:49 59° ENE 03:39:47 10° SSE
COSMO-SKYMED 1 3.3 03:36:39 10° SSE 03:40:52 55° ENE 03:45:09 10° N
Cosmos 1758 3.2 03:37:52 10° NNW 03:41:51 66° W 03:45:49 10° S
Cosmos 1190 Rocket 4.3 03:38:17 10° S 03:43:34 70° ESE 03:48:50 10° NNE
Cosmos 1378 4.3 03:46:03 23° WNW 03:46:03 23° WNW 03:48:47 10° NNW
SL-16 R/B 4.2 03:44:29 11° NW 03:45:43 11° NW 03:47:24 10° NNW
BREEZE-M R/B 4.4 03:42:48 23° W 03:46:17 68° N 03:57:32 10° ENE
Cosmos 407 Rocket 3.5 03:42:24 10° SSW 03:47:34 84° ESE 03:52:43 10° NNE
Cosmos 2074 Rocket 3.9 03:42:42 10° SSW 03:48:56 69° W 03:55:10 10° N
Meteor 1-4 Rocket 3.2 03:45:34 10° S 03:49:02 56° E 03:52:28 10° NNE
NOSS 3-2 (A) 4.3 03:45:53 10° NW 03:53:13 51° WSW 04:01:16 10° S
H-2A R/B 3.3 03:50:10 10° N 03:53:45 30° WNW 03:56:28 15° WSW
USA 32 4.2 03:48:52 10° SSW 03:53:55 49° W 03:59:01 10° N
USA 267 4.1 03:48:26 10° NE 03:54:17 36° NNW 03:59:15 14° WNW
Okean O Rocket 3.2 03:50:53 10° NNE 03:55:02 38° E 03:59:07 10° SSE
CZ-4B R/B 3.9 03:51:28 10° N 03:55:16 54° WNW 03:59:14 10° SSW
Cosmos 2219 Rocket 2.7 03:53:56 15° WSW 03:58:05 38° NW 04:03:17 10° NNE
Cosmos 1726 Rocket 3.8 03:54:02 10° N 03:58:22 72° E 04:02:39 10° SSE
NOSS 2-2 (E) 4.3 03:56:51 20° W 03:58:40 30° NW 04:02:35 10° NNE
NOSS 0 Rocket 3.9 03:54:34 10° SW 04:00:42 71° WNW 04:06:55 10° NNE
Cosmos 2237 Rocket 2.2 03:57:35 10° SSW 04:03:16 79° WNW 04:09:00 10° NNE
Meteor 1-31 Rocket 3.3 04:05:18 10° N 04:08:48 36° WNW 04:12:17 10° SW
Cosmos 2058 Rocket 3.7 04:04:58 10° N 04:09:21 62° E 04:13:44 10° SSE
ERBS 2.2 04:06:24 13° WSW 04:09:22 70° NW 04:12:44 10° NE
Cosmos 1025 Rocket 4.1 04:06:06 10° SW 04:09:35 24° WNW 04:13:06 10° NNW
Cosmos 2228 2.9 04:05:47 10° N 04:10:05 80° W 04:14:19 10° S
COSMOS 2428 3.5 04:07:24 11° WSW 04:12:05 31° NW 04:17:07 10° N
COSMOS 2455 4.0 04:10:26 13° W 04:14:27 24° NW 04:19:18 10° NNE
NOSS 3-2 (C) 4.3 04:07:45 10° NW 04:15:09 54° WSW 04:23:17 10° SSE
COBE Rocket 4.0 04:11:46 10° S 04:16:43 65° W 04:21:49 10° NNW
CZ-2C R/B 3.1 04:12:33 10° N 04:17:15 35° WNW 04:21:54 10° SW
Cosmos 1470 3.7 04:14:49 10° NNW 04:18:06 25° W 04:21:20 10° SW
In-Cosmos 22 4.2 04:12:52 10° S 04:18:11 82° E 04:23:39 10° NNE
Cosmos 2369 Rocket 4.3 04:14:58 10° N 04:19:32 25° NE 04:24:03 10° ESE
Cosmos 1980 3.8 04:14:13 10° SW 04:19:46 57° WNW 04:25:21 10° NNE
IDEFIX/ARIANE 42P 4.1 04:18:04 10° NNW 04:21:14 16° WNW 04:24:23 10° W
Cosmos 389 Rocket 3.0 04:18:09 10° SW 04:21:19 35° WNW 04:24:31 10° N
Cosmos 921 Rocket 4.1 04:17:59 10° NW 04:21:21 22° W 04:24:39 10° SSW
Meteor PRIRODA 4.2 04:17:55 10° N 04:21:25 38° WNW 04:24:54 10° SW
Cosmos 1954 Rocket 4.1 04:17:42 10° SSW 04:22:58 86° ESE 04:28:13 10° NNE
CZ-4B R/B 3.5 04:17:58 10° NNE 04:23:17 70° ESE 04:28:33 10° S
Cosmos 1707 3.4 04:20:59 10° SW 04:24:34 34° WNW 04:28:11 10° N
Cosmos 1484 Rocket 2.9 04:22:53 10° N 04:26:32 50° WNW 04:30:14 10° SSW
SKYMED 2 3.8 04:24:45 10° S 04:28:55 46° W 04:33:08 10° NNW
Cosmos 2360 Rocket 4.1 04:28:25 10° NW 04:30:05 11° NW 04:31:45 10° NNW
NOSS 3-4 (A) 3.5 04:26:35 10° SW 04:32:34 64° NW 04:38:58 10° NE
NOSS 3-4 (C) 3.5 04:26:38 10° SW 04:32:39 65° NW 04:39:04 10° NE
GP-B 3.4 04:31:24 10° SSW 04:35:39 46° W 04:39:57 10° NNW
Cosmos 1140 Rocket 3.7 04:34:23 10° SW 04:39:27 52° WNW 04:44:32 10° NNE
Cosmos 1892 Rocket 3.7 04:35:30 10° SSW 04:39:51 55° WNW 04:44:12 10° N
